Location: ????????
(55.6189°N, 38.3031°E)
Time: 21:47:10
(UTC+00:00)

Cosmos 1606 - Pass Details

Date: 15 November 2019
Orbit: 504 x 528 km, 82.5° (Epoch: 14 December)

Event Time Altitude Azimuth Distance (km) Brightness Sun altitude
Exits shadow 02:49:02 - 352° (N) 2,505 6.0 -18.2°
Reaches altitude 10° 02:50:57 10° 359° (N) 1,735 5.3 -17.9°
Maximum altitude 02:54:35 42° 72° (ENE) 740 3.9 -17.4°
Drops below altitude 10° 02:58:12 10° 144° (SE) 1,729 6.0 -16.9°
Sets 03:00:24 0° 152° (SSE) 2,613 6.8 -16.6°
